Location: Newark
(33.6333°S, 78.8500°W)
Time: 09:58:47
(UTC+00:00)

Vanguard 1 - Pass Details

Date: 24 September 2019
Orbit: 653 x 3830 km, 34.2° (Epoch: 22 October)

Event Time Altitude Azimuth Distance (km) Brightness Sun altitude
Rises 03:03:48 0° 270° (W) 4,961 14.1 -45.3°
Reaches altitude 10° 03:07:51 10° 286° (WNW) 4,444 13.6 -45.9°
Enters shadow 03:15:27 20° 323° (NW) 4,434 13.2 -47.0°
